Fredericksburg, VA

12:47 AM EDT on April 23, 2018 (GMT -0400)
Shannon

Weather History for KEZF - March, 2013

Change the Weather History Date:

Monday, March 4, 2013

  Actual Average (KNYG) Record (KNYG)
Temperature  
Mean Temperature 39 °F -  
Max Temperature 49 °F 49 °F 62 °F (2008)
Min Temperature 29 °F 32 °F 10 °F (2014)
Degree Days  
Heating Degree Days 26    
Moisture  
Dew Point 16 °F    
Average Humidity 45    
Maximum Humidity 70    
Minimum Humidity 28    
Precipitation  
Precipitation 0.00 in - - ()
Sea Level Pressure  
Sea Level Pressure 30.00 in    
Wind  
Wind Speed 7 mph (NW)    
Max Wind Speed 17 mph    
Max Gust Speed 21 mph    
Visibility 10 miles    
Events      
Averages and records for this station are not official NWS values.
T = Trace of Precipitation, MM = Missing Value Source: NWS Daily Summary

Daily Weather History Graph

Daily Weather History Graph

Search for Another Location

Airport or City:

Astronomy

Mar. 04, 2013 Rise Set
Actual Time 6:37 AM EST 6:06 PM EST
Civil Twilight 6:10 AM EST 6:32 PM EST
Nautical Twilight 5:40 AM EST 7:03 PM EST
Astronomical Twilight 5:09 AM EST 7:34 PM EST
Moon 12:40 AM EST (3/4) 10:49 AM EST (3/4)
Length of Visible Light 12h 22m
Length of Day
11h 29m
Waning Gibbous, 52% of the Moon is Illuminated
Mar 4
Waning Gibbous
Mar 4
Last Quarter
Mar 11
New
Mar 19
First Quarter
Mar 27
Full

Hourly Weather History & Observations

Time (EST) Temp. Windchill Dew Point Humidity Pressure Visibility Wind Dir Wind Speed Gust Speed Precip Events Conditions
12:15 AM 32.0 °F - 18.5 °F 58% 29.94 in 10.0 mi North - - N/A   Clear
12:35 AM 32.0 °F - 18.1 °F 57% 29.94 in 10.0 mi North - - N/A   Clear
12:55 AM 31.8 °F - 18.0 °F 57% 29.95 in 10.0 mi North - - N/A   Clear
1:15 AM 31.8 °F - 17.6 °F 56% 29.94 in 10.0 mi North - - N/A   Clear
2:15 AM 29.7 °F - 17.6 °F 61% 29.94 in 10.0 mi North - - N/A   Clear
2:35 AM 30.2 °F - 17.6 °F 60% 29.94 in 10.0 mi North - - N/A   Clear
3:15 AM 31.1 °F - 16.7 °F 55% 29.95 in 10.0 mi North - - N/A   Clear
3:35 AM 30.9 °F - 16.5 °F 55% 29.95 in 10.0 mi North - - N/A   Clear
3:55 AM 30.9 °F - 16.2 °F 54% 29.96 in 10.0 mi North - - N/A   Clear
4:15 AM 30.7 °F - 15.8 °F 54% 29.96 in 10.0 mi North - - N/A   Clear
4:55 AM 30.0 °F - 15.4 °F 55% 29.97 in 10.0 mi North - - N/A   Clear
5:15 AM 30.0 °F - 15.4 °F 55% 29.99 in 10.0 mi North - - N/A   Clear
5:55 AM 29.7 °F - 15.1 °F 55% 30.00 in 10.0 mi North - - N/A   Clear
6:35 AM 29.7 °F - 14.7 °F 54% 30.01 in 10.0 mi North - - N/A   Clear
6:55 AM 30.4 °F - 14.2 °F 51% 30.01 in 10.0 mi North - - N/A   Clear
7:15 AM 31.1 °F - 13.8 °F 49% 30.02 in 10.0 mi North - - N/A   Clear
7:35 AM 32.0 °F - 13.3 °F 46% 30.03 in 10.0 mi North - - N/A   Clear
7:55 AM 32.0 °F - 13.1 °F 46% 30.04 in 10.0 mi North - - N/A   Clear
8:15 AM 33.1 °F - 13.3 °F 44% 30.04 in 10.0 mi North - - N/A   Clear
8:35 AM 33.6 °F - 13.3 °F 43% 30.04 in 10.0 mi North - - N/A   Clear
8:55 AM 34.2 °F - 12.9 °F 42% 30.04 in 10.0 mi North - - N/A   Clear
9:15 AM 35.1 °F - 13.1 °F 40% 30.04 in 10.0 mi North - - N/A   Clear
9:35 AM 36.5 °F - 13.5 °F 39% 30.04 in 10.0 mi North - - N/A   Clear
9:55 AM 36.3 °F - 13.3 °F 39% 30.04 in 10.0 mi North - - N/A   Clear
10:15 AM 38.1 °F - 13.8 °F 37% 30.04 in 10.0 mi North - - N/A   Clear
10:35 AM 38.7 °F - 13.8 °F 36% 30.03 in 10.0 mi North - - N/A   Clear
10:55 AM 39.9 °F - 14.5 °F 36% 30.02 in 10.0 mi North - - N/A   Clear
11:15 AM 40.8 °F - 14.2 °F 34% 30.02 in 10.0 mi North - - N/A   Clear
11:35 AM 41.0 °F - 14.2 °F 34% 30.02 in 10.0 mi North - - N/A   Clear
11:55 AM 41.9 °F - 14.5 °F 33% 30.01 in - North - - N/A   Unknown
12:15 PM 43.3 °F - 15.1 °F 32% 30.00 in 10.0 mi North - - N/A   Clear
12:35 PM 43.7 °F - 14.5 °F 31% 29.99 in 10.0 mi North - - N/A   Clear
12:55 PM 45.1 °F - 14.7 °F 29% 29.97 in 10.0 mi North - - N/A   Clear
1:35 PM 47.1 °F - 15.8 °F 29% 29.96 in 10.0 mi WNW 17.3 mph 20.7 mph N/A   Clear
1:55 PM 46.8 °F - 15.6 °F 29% 29.96 in 10.0 mi WNW 8.1 mph 17.3 mph N/A   Clear
2:35 PM 47.5 °F - 16.2 °F 29% 29.96 in 10.0 mi West 8.1 mph 16.1 mph N/A   Clear
2:55 PM 48.4 °F - 16.9 °F 29% 29.95 in 10.0 mi NW 5.8 mph - N/A   Clear
3:15 PM 48.4 °F - 16.7 °F 28% 29.95 in 10.0 mi NW 9.2 mph - N/A   Clear
3:35 PM 49.1 °F - 16.9 °F 28% 29.95 in 10.0 mi West 11.5 mph 17.3 mph N/A   Clear
3:55 PM 49.5 °F - 17.1 °F 28% 29.95 in 10.0 mi NW 11.5 mph 17.3 mph N/A   Clear
4:35 PM 48.7 °F - 16.9 °F 28% 29.95 in 10.0 mi NW 10.4 mph - N/A   Clear
4:55 PM 48.2 °F - 16.2 °F 28% 29.95 in 10.0 mi NW 5.8 mph - N/A   Clear
5:35 PM 46.4 °F 42.9 °F 15.6 °F 29% 29.96 in 10.0 mi NW 6.9 mph - N/A   Clear
5:55 PM 45.7 °F 42.7 °F 15.6 °F 30% 29.97 in 10.0 mi NNW 5.8 mph - N/A   Clear
6:15 PM 45.0 °F 43.5 °F 14.7 °F 30% 29.99 in 10.0 mi NW 3.5 mph - N/A   Clear
6:35 PM 43.9 °F 42.3 °F 14.7 °F 31% 30.00 in 10.0 mi NNE 3.5 mph - N/A   Clear
6:55 PM 42.6 °F 39.0 °F 16.5 °F 35% 30.01 in 10.0 mi NNE 5.8 mph - N/A   Clear
7:15 PM 41.4 °F 37.6 °F 16.3 °F 36% 30.01 in 10.0 mi NNE 5.8 mph - N/A   Clear
7:35 PM 40.5 °F - 16.5 °F 38% 30.02 in 10.0 mi Calm Calm - N/A   Clear
7:55 PM 35.4 °F - 18.9 °F 51% 30.02 in 10.0 mi Calm Calm - N/A   Clear
8:15 PM 36.5 °F 32.7 °F 18.0 °F 47% 30.02 in 10.0 mi NNW 4.6 mph - N/A   Clear
8:35 PM 38.3 °F 34.8 °F 16.3 °F 41% 30.03 in 10.0 mi NNW 4.6 mph - N/A   Clear
8:55 PM 32.2 °F 28.9 °F 20.3 °F 62% 30.03 in 10.0 mi NNW 3.5 mph - N/A   Clear
9:15 PM 32.7 °F 29.6 °F 19.2 °F 58% 30.03 in 10.0 mi NNW 3.5 mph - N/A   Clear
9:35 PM 30.6 °F - 19.9 °F 65% 30.04 in 10.0 mi Calm Calm - N/A   Clear
9:55 PM 30.6 °F - 20.5 °F 66% 30.04 in 10.0 mi Calm Calm - N/A   Clear
10:15 PM 30.9 °F - 19.2 °F 62% 30.04 in 10.0 mi Calm Calm - N/A   Clear
10:35 PM 30.7 °F - 20.1 °F 65% 30.04 in 10.0 mi Calm Calm - N/A   Clear
10:55 PM 29.8 °F - 19.6 °F 66% 30.04 in 10.0 mi Calm Calm - N/A   Clear
11:15 PM 29.8 °F - 20.8 °F 69% 30.05 in 10.0 mi Calm Calm - N/A   Clear
11:35 PM 29.5 °F - 20.8 °F 70% 30.05 in 10.0 mi Calm Calm - N/A   Clear
11:55 PM 29.8 °F - 19.4 °F 65% 30.05 in 10.0 mi Calm Calm - N/A   Clear